Weather in Hassleholm

Sweden     56°09′26″N   13°45′49″E
temp.,
°C
wind,
m/s
gust,
m/s
humid.,
%
clouds,
%
prec.,
mm/h
press.,
hPa
HPBL,
m
27 september, mon
mon2723:00+12e3980100 0.0 1021320
02:00+12ese310856 0.0 1020317
05:00+11e3109839 0.0 1020262
08:00+13ese4119297 0.0 1019406
11:00+16ese5128222 0.0 1020647
14:00+18se6116784 0.0 1019828
17:00+15ese6127289 0.0 1018661
20:00+13ese51381100 0.0 1019504
28 september, tue
tue2823:00+13ese41386100 0.6 1018458
02:00+14se41083100 0.8 1018468
05:00+13se3896100 1.8 1018351
08:00+13se2699100 8.3 1019329
11:00+14nw3694100 1.9 1021449
14:00+14wnw2390100 1.9 1022412
17:00+14nw2490100 0.1 1022396
20:00+12nw249396 0.2 1023180
29 september, wed
wed2923:00+12n119799 0.1 102345
02:00+12ese1198100 0.1 102353
05:00+12sse119698 0.0 102235
08:00+10se229736 0.0 102274
11:00+14se3671100 0.0 1021668
14:00+16se4767100 0.0 10201006
17:00+14ese51082100 0.1 1019689
20:00+12se41187100 0.6 1019825
30 september, thu
thu3023:00+12se4994100 2.1 1018573
02:00+10wsw2694100 3.4 1019416
05:00+8ssw279533 0.0 1019261
08:00+7s310935 0.0 1019545
11:00+10ssw5108199 0.3 10191257
14:00+11ssw6117774 0.7 10191250
17:00+10sw61280100 0.3 10191232
20:00+10ssw51174100 0.3 10201055
1 october, fri
fri123:00+11ssw51170100 0.0 10201293
02:00+11ssw61270100 0.0 10191461
05:00+8s51290100 1.2 10181081
08:00+9s51193100 1.5 1017923
11:00+10s41187100 0.3 1017790
14:00+11ssw4985100 0.4 1017726
17:00+11s398399 0.1 1016739
20:00+11sse3982100 0.1 1016504